TimeCDT,TemperatureF,Dew PointF,Humidity,Sea Level PressureIn,VisibilityMPH,Wind Direction,Wind SpeedMPH,Gust SpeedMPH,PrecipitationIn,Events,Conditions,WindDirDegrees,DateUTC
12:13 AM,64.4,57.2,77,30.00,10.0,SSW,5.8,-,N/A,,Clear,210,2013-07-25 05:13:00
12:33 AM,64.4,57.2,77,30.00,10.0,SSW,5.8,-,N/A,,Clear,210,2013-07-25 05:33:00
12:53 AM,62.6,57.2,82,30.00,10.0,SSW,6.9,-,N/A,,Clear,210,2013-07-25 05:53:00
1:13 AM,64.4,57.2,77,29.99,10.0,SSW,5.8,-,N/A,,Clear,210,2013-07-25 06:13:00
1:33 AM,64.4,57.2,77,29.99,10.0,SSW,6.9,-,N/A,,Clear,200,2013-07-25 06:33:00
1:52 AM,64.4,57.2,77,29.98,10.0,SSW,6.9,-,N/A,,Clear,210,2013-07-25 06:52:00
2:13 AM,64.4,57.2,77,29.97,10.0,SSW,6.9,-,N/A,,Clear,200,2013-07-25 07:13:00
2:33 AM,64.4,57.2,77,29.97,10.0,SSW,5.8,-,N/A,,Clear,210,2013-07-25 07:33:00
2:52 AM,62.6,57.2,82,29.97,10.0,SSW,8.1,-,N/A,,Clear,210,2013-07-25 07:52:00
3:13 AM,64.4,57.2,77,29.97,10.0,SSW,9.2,-,N/A,,Clear,210,2013-07-25 08:13:00
3:33 AM,64.4,57.2,77,29.96,10.0,SSW,10.4,-,N/A,,Clear,210,2013-07-25 08:33:00
3:52 AM,64.4,57.2,77,29.96,10.0,SW,9.2,-,N/A,,Clear,220,2013-07-25 08:52:00
4:13 AM,64.4,57.2,77,29.96,10.0,WSW,8.1,-,N/A,,Scattered Clouds,240,2013-07-25 09:13:00
4:33 AM,64.4,59.0,83,29.98,10.0,Calm,Calm,-,N/A,,Scattered Clouds,0,2013-07-25 09:33:00
4:52 AM,64.4,60.8,88,29.96,10.0,SSW,5.8,-,N/A,Rain,Light Rain,210,2013-07-25 09:52:00
5:13 AM,62.6,60.8,94,29.97,10.0,West,4.6,-,N/A,,Clear,280,2013-07-25 10:13:00
5:33 AM,64.4,60.8,88,29.98,10.0,Calm,Calm,-,N/A,,Clear,0,2013-07-25 10:33:00
5:52 AM,60.8,59.0,94,29.99,10.0,Calm,Calm,-,N/A,,Clear,0,2013-07-25 10:52:00
6:13 AM,60.8,60.8,100,29.98,10.0,SSE,3.5,-,N/A,,Clear,160,2013-07-25 11:13:00
6:33 AM,60.8,60.8,100,29.98,10.0,Calm,Calm,-,N/A,,Clear,0,2013-07-25 11:33:00
6:53 AM,62.6,60.8,94,29.98,10.0,South,4.6,-,N/A,,Clear,190,2013-07-25 11:53:00
7:13 AM,64.4,62.6,94,29.98,10.0,SSW,4.6,-,N/A,,Clear,200,2013-07-25 12:13:00
7:33 AM,64.4,62.6,94,29.98,10.0,SSW,3.5,-,N/A,,Clear,200,2013-07-25 12:33:00
7:53 AM,66.2,62.6,88,29.98,10.0,SSW,3.5,-,N/A,,Clear,210,2013-07-25 12:53:00
8:13 AM,68.0,62.6,83,29.98,10.0,South,4.6,-,N/A,,Clear,190,2013-07-25 13:13:00
8:32 AM,69.8,62.6,78,29.98,10.0,SSW,3.5,-,N/A,,Clear,200,2013-07-25 13:32:00
8:53 AM,69.8,62.6,78,29.98,10.0,SSW,3.5,-,N/A,,Clear,200,2013-07-25 13:53:00
9:13 AM,71.6,64.4,78,29.98,10.0,SW,4.6,-,N/A,,Clear,220,2013-07-25 14:13:00
9:32 AM,73.4,64.4,73,29.98,10.0,West,3.5,-,N/A,,Clear,260,2013-07-25 14:32:00
9:53 AM,73.4,64.4,73,29.98,10.0,WSW,6.9,-,N/A,,Clear,250,2013-07-25 14:53:00
10:13 AM,75.2,64.4,69,29.99,10.0,WSW,3.5,-,N/A,,Clear,250,2013-07-25 15:13:00
10:32 AM,77.0,66.2,69,29.99,7.0,West,5.8,-,N/A,,Clear,260,2013-07-25 15:32:00
10:53 AM,78.8,66.2,65,29.99,10.0,West,4.6,-,N/A,,Clear,270,2013-07-25 15:53:00
11:13 AM,80.6,66.2,61,29.98,10.0,West,9.2,-,N/A,,Clear,260,2013-07-25 16:13:00
11:32 AM,80.6,66.2,61,29.98,10.0,West,6.9,-,N/A,,Clear,260,2013-07-25 16:32:00
11:53 AM,80.6,66.2,61,29.98,10.0,West,9.2,-,N/A,,Clear,260,2013-07-25 16:53:00
12:13 PM,80.6,66.2,61,29.98,10.0,WNW,10.4,-,N/A,,Clear,290,2013-07-25 17:13:00
12:32 PM,80.6,66.2,61,29.98,10.0,WNW,10.4,-,N/A,,Clear,290,2013-07-25 17:32:00
12:53 PM,80.6,68.0,65,29.97,10.0,NNW,13.8,-,N/A,,Clear,330,2013-07-25 17:53:00
1:13 PM,78.8,68.0,69,29.97,10.0,NNW,16.1,19.6,N/A,,Clear,340,2013-07-25 18:13:00
1:33 PM,73.4,69.8,88,29.97,10.0,North,10.4,16.1,0.09,Rain,Heavy Rain,350,2013-07-25 18:33:00
1:53 PM,73.4,69.8,88,29.97,10.0,NW,13.8,17.3,0.09,,Scattered Clouds,320,2013-07-25 18:53:00
2:13 PM,75.2,66.2,73,29.97,10.0,NW,9.2,-,N/A,,Clear,320,2013-07-25 19:13:00
2:33 PM,78.8,64.4,61,29.96,10.0,NNW,11.5,-,N/A,,Clear,330,2013-07-25 19:33:00
2:53 PM,78.8,64.4,61,29.97,10.0,NNW,15.0,18.4,N/A,Thunderstorm,Clear,330,2013-07-25 19:53:00
3:12 PM,78.8,62.6,57,29.96,10.0,North,9.2,16.1,N/A,,Clear,350,2013-07-25 20:12:00
3:33 PM,78.8,59.0,51,29.96,10.0,North,10.4,17.3,N/A,,Clear,10,2013-07-25 20:33:00
3:53 PM,78.8,60.8,54,29.96,10.0,North,6.9,16.1,N/A,,Clear,360,2013-07-25 20:53:00
4:12 PM,78.8,60.8,54,29.96,10.0,North,4.6,-,N/A,,Clear,10,2013-07-25 21:12:00
4:33 PM,78.8,60.8,54,29.95,10.0,NE,4.6,-,N/A,,Clear,50,2013-07-25 21:33:00
4:53 PM,78.8,60.8,54,29.95,10.0,NNE,4.6,-,N/A,,Clear,30,2013-07-25 21:53:00
5:13 PM,78.8,60.8,54,29.95,10.0,NE,5.8,-,N/A,,Clear,50,2013-07-25 22:13:00
5:33 PM,78.8,60.8,54,29.94,10.0,NE,3.5,-,N/A,,Clear,40,2013-07-25 22:33:00
5:52 PM,78.8,60.8,54,29.93,10.0,Calm,Calm,-,N/A,,Clear,0,2013-07-25 22:52:00
6:13 PM,78.8,60.8,54,29.93,10.0,NNE,3.5,-,N/A,,Clear,20,2013-07-25 23:13:00
6:33 PM,78.8,60.8,54,29.92,10.0,NE,3.5,-,N/A,,Clear,40,2013-07-25 23:33:00
6:52 PM,78.8,60.8,54,29.93,10.0,Calm,Calm,-,N/A,,Clear,0,2013-07-25 23:52:00
7:13 PM,77.0,62.6,61,29.94,10.0,Calm,Calm,-,N/A,,Clear,0,2013-07-26 00:13:00
7:33 PM,77.0,62.6,61,29.94,10.0,NNW,4.6,-,N/A,,Clear,330,2013-07-26 00:33:00
7:53 PM,75.2,62.6,65,29.94,10.0,NNW,3.5,-,N/A,,Clear,330,2013-07-26 00:53:00
8:13 PM,75.2,64.4,69,29.94,10.0,NW,4.6,-,N/A,,Clear,320,2013-07-26 01:13:00
8:32 PM,73.4,64.4,73,29.94,10.0,NW,3.5,-,N/A,,Clear,310,2013-07-26 01:32:00
8:53 PM,73.4,64.4,73,29.95,10.0,NW,3.5,-,N/A,,Clear,310,2013-07-26 01:53:00
9:13 PM,71.6,64.4,78,29.95,10.0,NNW,4.6,-,N/A,,Clear,330,2013-07-26 02:13:00
9:32 PM,71.6,62.6,73,29.96,10.0,Calm,Calm,-,N/A,,Clear,0,2013-07-26 02:32:00
9:53 PM,71.6,64.4,78,29.97,10.0,Calm,Calm,-,N/A,,Mostly Cloudy,0,2013-07-26 02:53:00
10:13 PM,69.8,64.4,83,29.97,10.0,South,4.6,-,N/A,,Overcast,180,2013-07-26 03:13:00
10:32 PM,69.8,66.2,88,29.97,10.0,South,8.1,-,N/A,,Overcast,180,2013-07-26 03:32:00
10:53 PM,69.8,66.2,88,29.97,10.0,South,4.6,-,N/A,,Mostly Cloudy,190,2013-07-26 03:53:00
11:13 PM,69.8,64.4,83,29.96,10.0,SSW,6.9,-,N/A,,Scattered Clouds,210,2013-07-26 04:13:00
11:32 PM,68.0,64.4,88,29.95,10.0,SSW,4.6,-,N/A,,Scattered Clouds,210,2013-07-26 04:32:00
11:53 PM,66.2,64.4,94,29.95,10.0,SSW,4.6,-,N/A,,Clear,210,2013-07-26 04:53:00